Location: Chiroubles
(46.1812°N, 4.6660°E)
Time: 01:09:15
(UTC+00:00)

Cosmos 2333 Rocket - Pass Details

Date: 15 August 2020
Orbit: 838 x 864 km, 70.8° (Epoch: 25 September)

Event Time Altitude Azimuth Distance (km) Brightness Sun altitude
Rises 21:05:26 0° 338° (NNW) 3,455 6.7 -20.1°
Reaches altitude 10° 21:08:10 10° 348° (NNW) 2,514 5.5 -20.4°
Maximum altitude 21:13:22 33° 52° (NE) 1,410 3.3 -21.0°
Enters shadow 21:15:22 26° 88° (E) 1,621 3.3 -21.2°
